TimeMST,TemperatureF,Dew PointF,Humidity,Sea Level PressureIn,VisibilityMPH,Wind Direction,Wind SpeedMPH,Gust SpeedMPH,PrecipitationIn,Events,Conditions,WindDirDegrees,DateUTC
12:15 AM,31.8,21.2,65,29.76,10.0,East,3.5,-,N/A,,Clear,100,2013-02-09 07:15:00
12:35 AM,31.3,21.2,66,29.76,10.0,East,4.6,-,N/A,,Clear,90,2013-02-09 07:35:00
12:55 AM,29.5,20.7,70,29.75,10.0,East,3.5,-,N/A,,Clear,80,2013-02-09 07:55:00
1:15 AM,29.3,20.8,71,29.75,10.0,ESE,5.8,-,N/A,,Clear,110,2013-02-09 08:15:00
1:35 AM,26.6,19.8,75,29.74,10.0,ESE,6.9,-,N/A,,Clear,110,2013-02-09 08:35:00
1:55 AM,26.2,19.8,76,29.74,10.0,East,8.1,-,N/A,,Clear,100,2013-02-09 08:55:00
2:15 AM,26.2,19.9,77,29.74,10.0,East,5.8,-,N/A,,Clear,90,2013-02-09 09:15:00
2:35 AM,25.9,20.1,79,29.73,10.0,East,6.9,-,N/A,,Clear,90,2013-02-09 09:35:00
2:55 AM,25.9,20.3,79,29.73,10.0,East,8.1,-,N/A,,Clear,100,2013-02-09 09:55:00
3:15 AM,25.3,19.8,79,29.72,10.0,ESE,6.9,-,N/A,,Clear,110,2013-02-09 10:15:00
3:35 AM,25.0,19.2,79,29.71,10.0,East,6.9,-,N/A,,Clear,100,2013-02-09 10:35:00
3:55 AM,23.5,18.1,80,29.71,10.0,East,4.6,-,N/A,,Clear,80,2013-02-09 10:55:00
4:15 AM,24.3,19.0,80,29.71,10.0,ENE,5.8,-,N/A,,Clear,70,2013-02-09 11:15:00
4:35 AM,24.6,18.7,78,29.71,10.0,ENE,5.8,-,N/A,,Clear,70,2013-02-09 11:35:00
4:55 AM,23.9,18.5,80,29.71,10.0,ENE,3.5,-,N/A,,Clear,70,2013-02-09 11:55:00
5:15 AM,23.9,18.9,81,29.70,10.0,NE,4.6,-,N/A,,Clear,50,2013-02-09 12:15:00
5:35 AM,23.2,17.8,80,29.70,10.0,NE,5.8,-,N/A,,Clear,40,2013-02-09 12:35:00
5:55 AM,25.0,18.9,78,29.71,10.0,ENE,4.6,-,N/A,,Clear,70,2013-02-09 12:55:00
6:15 AM,24.3,18.3,78,29.70,10.0,NNE,3.5,-,N/A,,Clear,20,2013-02-09 13:15:00
6:35 AM,21.9,16.7,80,29.71,10.0,Calm,Calm,-,N/A,,Clear,0,2013-02-09 13:35:00
6:55 AM,21.0,16.3,82,29.71,10.0,Calm,Calm,-,N/A,,Clear,0,2013-02-09 13:55:00
7:15 AM,22.3,17.2,81,29.71,10.0,Calm,Calm,-,N/A,,Clear,0,2013-02-09 14:15:00
7:35 AM,22.6,18.3,83,29.71,10.0,Calm,Calm,-,N/A,,Clear,0,2013-02-09 14:35:00
7:55 AM,25.5,20.7,82,29.71,10.0,Calm,Calm,-,N/A,,Clear,0,2013-02-09 14:55:00
8:15 AM,28.9,20.8,72,29.70,10.0,ESE,3.5,-,N/A,,Clear,110,2013-02-09 15:15:00
8:35 AM,31.1,21.6,68,29.69,10.0,East,4.6,-,N/A,,Clear,90,2013-02-09 15:35:00
8:55 AM,32.5,21.6,64,29.69,10.0,East,3.5,-,N/A,,Clear,80,2013-02-09 15:55:00
9:15 AM,34.3,21.9,60,29.69,10.0,East,3.5,-,N/A,,Clear,100,2013-02-09 16:15:00
9:35 AM,36.3,22.3,57,29.68,10.0,ESE,3.5,-,N/A,,Clear,110,2013-02-09 16:35:00
9:55 AM,38.1,22.1,53,29.67,10.0,Calm,Calm,-,N/A,,Clear,0,2013-02-09 16:55:00
10:15 AM,40.5,22.6,49,29.67,10.0,ESE,3.5,-,N/A,,Clear,120,2013-02-09 17:15:00
10:35 AM,42.8,23.0,46,29.66,10.0,East,4.6,-,N/A,,Clear,100,2013-02-09 17:35:00
10:55 AM,45.0,23.5,43,29.64,10.0,ENE,6.9,-,N/A,,Clear,70,2013-02-09 17:55:00
11:15 AM,45.5,23.0,41,29.63,10.0,ENE,8.1,-,N/A,,Clear,60,2013-02-09 18:15:00
11:35 AM,47.1,23.2,39,29.61,10.0,East,6.9,-,N/A,,Clear,80,2013-02-09 18:35:00
11:55 AM,49.5,22.6,35,29.60,10.0,SSE,8.1,-,N/A,,Clear,150,2013-02-09 18:55:00
12:15 PM,50.2,22.5,34,29.57,10.0,SSE,10.4,18.4,N/A,,Clear,150,2013-02-09 19:15:00
12:35 PM,50.9,22.1,32,29.56,10.0,SE,11.5,16.1,N/A,,Clear,130,2013-02-09 19:35:00
12:55 PM,51.3,21.7,31,29.55,10.0,ESE,15.0,-,N/A,,Clear,110,2013-02-09 19:55:00
1:15 PM,51.6,21.2,30,29.53,10.0,SE,9.2,25.3,N/A,,Clear,130,2013-02-09 20:15:00
1:35 PM,52.7,20.8,29,29.51,10.0,East,12.7,16.1,N/A,,Clear,100,2013-02-09 20:35:00
1:55 PM,52.7,20.3,28,29.50,10.0,SE,13.8,21.9,N/A,,Clear,130,2013-02-09 20:55:00
2:15 PM,53.8,20.3,27,29.49,10.0,SE,17.3,21.9,N/A,,Clear,130,2013-02-09 21:15:00
2:35 PM,53.4,20.3,27,29.48,10.0,SE,13.8,-,N/A,,Clear,130,2013-02-09 21:35:00
2:55 PM,53.8,21.9,29,29.48,10.0,SE,15.0,21.9,N/A,,Clear,130,2013-02-09 21:55:00
3:15 PM,52.9,22.6,31,29.47,10.0,ESE,17.3,24.2,N/A,,Clear,120,2013-02-09 22:15:00
3:35 PM,52.2,23.5,33,29.47,10.0,SE,10.4,-,N/A,,Mostly Cloudy,140,2013-02-09 22:35:00
3:55 PM,52.0,24.6,35,29.46,10.0,East,16.1,-,N/A,,Overcast,100,2013-02-09 22:55:00
4:15 PM,50.7,24.8,36,29.45,10.0,East,13.8,-,N/A,,Overcast,100,2013-02-09 23:15:00
4:35 PM,49.8,26.1,40,29.45,10.0,East,12.7,-,N/A,,Overcast,90,2013-02-09 23:35:00
4:55 PM,49.5,27.0,42,29.45,10.0,East,15.0,18.4,N/A,,Overcast,80,2013-02-09 23:55:00
5:15 PM,49.5,28.0,44,29.44,10.0,East,15.0,-,N/A,,Overcast,80,2013-02-10 00:15:00
5:35 PM,47.8,28.6,47,29.45,10.0,East,18.4,23.0,N/A,,Overcast,80,2013-02-10 00:35:00
5:55 PM,47.3,29.3,50,29.45,10.0,ENE,13.8,23.0,N/A,,Overcast,70,2013-02-10 00:55:00
6:15 PM,41.9,28.0,58,29.47,10.0,NNE,17.3,31.1,N/A,,Overcast,20,2013-02-10 01:15:00
6:35 PM,34.9,26.1,70,29.47,10.0,North,25.3,33.4,N/A,,Light Drizzle,360,2013-02-10 01:35:00
6:55 PM,33.1,26.4,77,29.48,10.0,North,21.9,29.9,N/A,,Overcast,360,2013-02-10 01:55:00
7:15 PM,32.9,27.1,79,29.46,10.0,North,24.2,31.1,N/A,,Overcast,350,2013-02-10 02:15:00
7:35 PM,32.0,27.5,83,29.45,10.0,North,23.0,29.9,N/A,,Overcast,360,2013-02-10 02:35:00
7:55 PM,32.0,27.5,83,29.45,10.0,North,19.6,29.9,N/A,,Overcast,360,2013-02-10 02:55:00
8:15 PM,32.0,27.5,83,29.46,10.0,North,16.1,-,N/A,,Overcast,350,2013-02-10 03:15:00
8:35 PM,31.5,27.9,87,29.43,0.8,North,24.2,-,N/A,Snow,Light Snow,360,2013-02-10 03:35:00
8:55 PM,30.2,28.2,92,29.42,0.5,North,24.2,31.1,N/A,Snow,Snow,360,2013-02-10 03:55:00
9:15 PM,30.0,27.5,90,29.43,3.0,North,21.9,-,N/A,Snow,Light Snow,360,2013-02-10 04:15:00
9:35 PM,29.3,27.0,91,29.41,2.5,North,23.0,29.9,N/A,Snow,Light Snow,360,2013-02-10 04:35:00
9:55 PM,29.3,26.6,90,29.41,2.0,North,23.0,29.9,N/A,Snow,Light Snow,350,2013-02-10 04:55:00
10:15 PM,28.9,26.2,90,29.41,1.0,North,20.7,33.4,N/A,Snow,Snow,350,2013-02-10 05:15:00
10:35 PM,28.9,26.4,90,29.41,1.2,NNW,19.6,27.6,N/A,Snow,Snow,340,2013-02-10 05:35:00
10:55 PM,28.6,26.2,91,29.41,1.2,NNW,21.9,27.6,N/A,Snow,Light Snow,340,2013-02-10 05:55:00
11:15 PM,28.2,25.3,89,29.41,2.0,NNW,15.0,26.5,N/A,Snow,Light Snow,340,2013-02-10 06:15:00
11:35 PM,27.7,24.6,88,29.40,2.5,NNW,29.9,34.5,N/A,Snow,Light Snow,340,2013-02-10 06:35:00
11:55 PM,27.3,24.4,89,29.40,1.2,NNW,27.6,32.2,N/A,Snow,Light Snow,340,2013-02-10 06:55:00